| time (UTC) | temp F | wind direction | speed MPH | gust MPH | rain 1hr in | rain 24hr in | rain mn in | humidity % | barometer mb |
| 20260502214214 | 63 | 180 | 2.0 | 4.0 | 0.00 | 0.00 | 0.00 | 66 | 1016.1 |
| 20260502213215 | 63 | 196 | 2.0 | 5.0 | 0.00 | 0.00 | 0.00 | 66 | 1016.1 |
| 20260502212216 | 63 | 186 | 0.0 | 4.0 | 0.00 | 0.00 | 0.00 | 65 | 1016.1 |
| 20260502211214 | 64 | 161 | 2.0 | 5.0 | 0.00 | 0.00 | 0.00 | 64 | 1016.1 |
| 20260502210214 | 64 | 166 | 3.0 | 6.0 | 0.00 | 0.00 | 0.00 | 63 | 1016.0 |
| 20260502205214 | 65 | 144 | 3.0 | 4.0 | 0.00 | 0.00 | 0.00 | 62 | 1015.9 |
| 20260502204214 | 65 | 159 | 3.0 | 4.0 | 0.00 | 0.00 | 0.00 | 62 | 1015.9 |
| 20260502203214 | 66 | 134 | 1.0 | 2.0 | 0.00 | 0.00 | 0.00 | 62 | 1015.9 |
| 20260502202214 | 66 | 155 | 2.0 | 3.0 | 0.00 | 0.00 | 0.00 | 61 | 1015.9 |
| 20260502201214 | 67 | 221 | 1.0 | 2.0 | 0.00 | 0.00 | 0.00 | 60 | 1015.8 |
| 20260502200215 | 68 | 221 | 0.0 | 1.0 | 0.00 | 0.00 | 0.00 | 59 | 1015.6 |
| 20260502195214 | 68 | 221 | 0.0 | 2.0 | 0.00 | 0.00 | 0.00 | 57 | 1015.6 |
| 20260502194214 | 69 | 221 | 0.0 | 2.0 | 0.00 | 0.00 | 0.00 | 56 | 1015.6 |
| 20260502193214 | 70 | 236 | 0.0 | 1.0 | 0.00 | 0.00 | 0.00 | 54 | 1015.5 |
| 20260502192214 | 71 | 234 | 1.0 | 2.0 | 0.00 | 0.00 | 0.00 | 53 | 1015.5 |
| 20260502191214 | 72 | 245 | 1.0 | 3.0 | 0.00 | 0.00 | 0.00 | 51 | 1015.5 |
| 20260502190214 | 73 | 237 | 2.0 | 3.0 | 0.00 | 0.00 | 0.00 | 50 | 1015.3 |
| 20260502185214 | 74 | 269 | 2.0 | 3.0 | 0.00 | 0.00 | 0.00 | 49 | 1015.3 |
| 20260502184214 | 74 | 242 | 3.0 | 6.0 | 0.00 | 0.00 | 0.00 | 47 | 1015.3 |
| 20260502183214 | 75 | 271 | 3.0 | 6.0 | 0.00 | 0.00 | 0.00 | 47 | 1015.2 |
| 20260502182214 | 76 | 232 | 2.0 | 4.0 | 0.00 | 0.00 | 0.00 | 46 | 1015.2 |
| 20260502181214 | 76 | 223 | 1.0 | 4.0 | 0.00 | 0.00 | 0.00 | 47 | 1015.1 |
| 20260502180214 | 77 | 232 | 2.0 | 4.0 | 0.00 | 0.00 | 0.00 | 45 | 1015.1 |
| 20260502170214 | 79 | 252 | 5.0 | 8.0 | 0.00 | 0.00 | 0.00 | 40 | 1015.3 |
| 20260502164213 | 80 | 244 | 3.0 | 7.0 | 0.00 | 0.00 | 0.00 | 39 | 1015.4 |
| 20260502163213 | 80 | 257 | 3.0 | 7.0 | 0.00 | 0.00 | 0.00 | 39 | 1015.5 |
| 20260502162213 | 80 | 267 | 4.0 | 8.0 | 0.00 | 0.00 | 0.00 | 39 | 1015.6 |
| 20260502161213 | 80 | 209 | 3.0 | 5.0 | 0.00 | 0.00 | 0.00 | 37 | 1015.7 |
| 20260502160213 | 80 | 209 | 4.0 | 8.0 | 0.00 | 0.00 | 0.00 | 37 | 1015.9 |
| 20260502152212 | 81 | 206 | 5.0 | 10.0 | 0.00 | 0.00 | 0.00 | 34 | 1016.3 |
| 20260502151212 | 81 | 259 | 2.0 | 8.0 | 0.00 | 0.00 | 0.00 | 34 | 1016.3 |
| 20260502150213 | 82 | 220 | 4.0 | 9.0 | 0.00 | 0.00 | 0.00 | 34 | 1016.5 |
| 20260502130214 | 85 | 212 | 5.0 | 15.0 | 0.00 | 0.00 | 0.00 | 34 | 1018.4 |
| 20260502123214 | 86 | 196 | 5.0 | 10.0 | 0.00 | 0.00 | 0.00 | 31 | 1018.7 |
| 20260502122213 | 85 | 211 | 4.0 | 8.0 | 0.00 | 0.00 | 0.00 | 34 | 1018.9 |
| 20260502121213 | 85 | 193 | 3.0 | 10.0 | 0.00 | 0.00 | 0.00 | 34 | 1019.0 |
| 20260502120213 | 85 | 301 | 3.0 | 9.0 | 0.00 | 0.00 | 0.00 | 36 | 1019.2 |
| 20260502115213 | 85 | 163 | 5.0 | 10.0 | 0.00 | 0.00 | 0.00 | 34 | 1019.3 |
| 20260502114216 | 84 | 263 | 4.0 | 8.0 | 0.00 | 0.00 | 0.00 | 37 | 1019.4 |
| 20260502113213 | 84 | 273 | 7.0 | 10.0 | 0.00 | 0.00 | 0.00 | 36 | 1019.6 |
| 20260502112213 | 83 | 278 | 5.0 | 11.0 | 0.00 | 0.00 | 0.00 | 37 | 1019.8 |
| 20260502111213 | 82 | 251 | 5.0 | 11.0 | 0.00 | 0.00 | 0.00 | 39 | 1019.9 |
| 20260502110213 | 81 | 260 | 4.0 | 11.0 | 0.00 | 0.00 | 0.00 | 40 | 1020.1 |
| 20260502105212 | 81 | 142 | 4.0 | 8.0 | 0.00 | 0.00 | 0.00 | 40 | 1020.2 |
| 20260502104212 | 80 | 176 | 3.0 | 11.0 | 0.00 | 0.00 | 0.00 | 41 | 1020.4 |
| 20260502103212 | 80 | 165 | 4.0 | 10.0 | 0.00 | 0.00 | 0.00 | 42 | 1020.5 |
| 20260502102212 | 79 | 179 | 2.0 | 10.0 | 0.00 | 0.00 | 0.00 | 42 | 1020.6 |
| 20260502101212 | 78 | 155 | 5.0 | 8.0 | 0.00 | 0.00 | 0.00 | 43 | 1020.7 |
| 20260502100212 | 77 | 253 | 2.0 | 10.0 | 0.00 | 0.00 | 0.00 | 44 | 1020.9 |
| 20260502091213 | 72 | 215 | 6.0 | 11.0 | 0.00 | 0.00 | 0.00 | 49 | 1021.4 |
| 20260502090213 | 71 | 275 | 4.0 | 8.0 | 0.00 | 0.00 | 0.00 | 51 | 1021.6 |
| 20260502071213 | 60 | 201 | 3.0 | 6.0 | 0.00 | 0.00 | 0.00 | 62 | 1022.3 |
| 20260502070212 | 59 | 151 | 3.0 | 9.0 | 0.00 | 0.00 | 0.00 | 63 | 1022.4 |
| 20260502065212 | 58 | 173 | 5.0 | 7.0 | 0.00 | 0.00 | 0.00 | 64 | 1022.4 |
| 20260502064212 | 56 | 190 | 5.0 | 8.0 | 0.00 | 0.00 | 0.00 | 67 | 1022.4 |
| 20260502063212 | 55 | 164 | 3.0 | 6.0 | 0.00 | 0.00 | 0.00 | 70 | 1022.3 |
| 20260502062212 | 54 | 188 | 3.0 | 5.0 | 0.00 | 0.00 | 0.00 | 72 | 1022.4 |
| 20260502061211 | 53 | 163 | 1.0 | 4.0 | 0.00 | 0.00 | 0.00 | 74 | 1022.4 |
| 20260502060211 | 52 | 199 | 0.0 | 3.0 | 0.00 | 0.00 | 0.00 | 75 | 1022.5 |
| 20260502055212 | 51 | 181 | 0.0 | 0.0 | 0.00 | 0.00 | 0.00 | 76 | 1022.4 |
| 20260502054211 | 50 | 181 | 0.0 | 0.0 | 0.00 | 0.00 | 0.00 | 76 | 1022.4 |
| 20260502053211 | 50 | 181 | 0.0 | 0.0 | 0.00 | 0.00 | 0.00 | 77 | 1022.5 |
| 20260502052211 | 50 | 181 | 0.0 | 0.0 | 0.00 | 0.00 | 0.00 | 77 | 1022.4 |
| 20260502051211 | 49 | 181 | 0.0 | 0.0 | 0.00 | 0.00 | 0.00 | 76 | 1022.4 |
| 20260502050211 | 49 | 144 | 2.0 | 4.0 | 0.00 | 0.00 | 0.00 | 76 | 1022.2 |
| 20260502045214 | 49 | 171 | 2.0 | 4.0 | 0.00 | 0.00 | 0.00 | 77 | 1022.3 |
| 20260502044212 | 49 | 235 | 2.0 | 4.0 | 0.00 | 0.00 | 0.00 | 77 | 1022.2 |
| 20260502043212 | 49 | 189 | 1.0 | 5.0 | 0.00 | 0.00 | 0.00 | 77 | 1022.2 |
| 20260502042212 | 49 | 171 | 2.0 | 6.0 | 0.00 | 0.00 | 0.00 | 77 | 1022.1 |
| 20260502041212 | 49 | 211 | 3.0 | 6.0 | 0.00 | 0.00 | 0.00 | 78 | 1022.1 |
| 20260502040212 | 49 | 178 | 3.0 | 5.0 | 0.00 | 0.00 | 0.00 | 78 | 1022.1 |
| 20260502035212 | 49 | 184 | 3.0 | 6.0 | 0.00 | 0.00 | 0.00 | 78 | 1022.1 |
| 20260502034212 | 49 | 204 | 4.0 | 5.0 | 0.00 | 0.00 | 0.00 | 78 | 1022.1 |
| 20260502033212 | 49 | 180 | 3.0 | 5.0 | 0.00 | 0.00 | 0.00 | 78 | 1022.2 |
| 20260502032211 | 49 | 173 | 2.0 | 5.0 | 0.00 | 0.00 | 0.00 | 78 | 1022.2 |
| 20260502031211 | 49 | 184 | 3.0 | 6.0 | 0.00 | 0.00 | 0.00 | 77 | 1022.2 |
| 20260502030211 | 49 | 163 | 1.0 | 5.0 | 0.00 | 0.00 | 0.00 | 77 | 1022.2 |
| 20260502025213 | 49 | 246 | 2.0 | 6.0 | 0.00 | 0.00 | 0.00 | 76 | 1022.2 |
| 20260502024211 | 49 | 231 | 3.0 | 5.0 | 0.00 | 0.00 | 0.00 | 75 | 1022.1 |
| 20260502023211 | 50 | 230 | 1.0 | 4.0 | 0.00 | 0.00 | 0.00 | 75 | 1022.2 |
| 20260502022211 | 50 | 209 | 0.0 | 4.0 | 0.00 | 0.00 | 0.00 | 75 | 1022.2 |
| 20260502021211 | 50 | 196 | 1.0 | 4.0 | 0.00 | 0.00 | 0.00 | 75 | 1022.1 |
| 20260502020211 | 50 | 231 | 3.0 | 4.0 | 0.00 | 0.00 | 0.00 | 74 | 1022.2 |
| 20260502015213 | 50 | 215 | 2.0 | 4.0 | 0.00 | 0.00 | 0.00 | 74 | 1022.2 |
| 20260502014213 | 50 | 196 | 0.0 | 4.0 | 0.00 | 0.00 | 0.00 | 74 | 1022.2 |
| 20260502013212 | 50 | 225 | 3.0 | 6.0 | 0.00 | 0.00 | 0.00 | 73 | 1022.3 |
| 20260502012213 | 50 | 229 | 0.0 | 4.0 | 0.00 | 0.00 | 0.00 | 73 | 1022.3 |
| 20260502011212 | 50 | 247 | 2.0 | 3.0 | 0.00 | 0.00 | 0.00 | 73 | 1022.4 |
| 20260502010212 | 50 | 230 | 0.0 | 3.0 | 0.00 | 0.00 | 0.00 | 73 | 1022.4 |
| 20260502005212 | 50 | 269 | 0.0 | 0.0 | 0.00 | 0.00 | 0.00 | 73 | 1022.4 |
| 20260502004212 | 50 | 185 | 0.0 | 3.0 | 0.00 | 0.00 | 0.00 | 72 | 1022.5 |
| 20260502003212 | 50 | 254 | 1.0 | 5.0 | 0.00 | 0.00 | 0.00 | 71 | 1022.5 |
| 20260502002212 | 50 | 241 | 2.0 | 4.0 | 0.00 | 0.00 | 0.00 | 71 | 1022.5 |
| 20260502001212 | 50 | 216 | 3.0 | 4.0 | 0.00 | 0.00 | 0.00 | 70 | 1022.6 |
| 20260502000211 | 51 | 200 | 4.0 | 7.0 | 0.00 | 0.00 | 0.00 | 70 | 1022.7 |
| 20260501235211 | 51 | 208 | 2.0 | 4.0 | 0.00 | 0.00 | 0.00 | 69 | 1022.7 |
| 20260501234211 | 51 | 202 | 2.0 | 3.0 | 0.00 | 0.00 | 0.00 | 69 | 1022.7 |
| 20260501233211 | 52 | 212 | 0.0 | 0.0 | 0.00 | 0.00 | 0.00 | 68 | 1022.7 |
| 20260501232211 | 52 | 162 | 0.0 | 0.0 | 0.00 | 0.00 | 0.00 | 69 | 1022.6 |
| 20260501231211 | 53 | 162 | 0.0 | 0.0 | 0.00 | 0.00 | 0.00 | 68 | 1022.7 |
| 20260501230211 | 53 | 213 | 0.0 | 0.0 | 0.00 | 0.00 | 0.00 | 67 | 1022.7 |
| 20260501225211 | 53 | 213 | 0.0 | 0.0 | 0.00 | 0.00 | 0.00 | 67 | 1022.7 |
| 20260501224211 | 54 | 216 | 0.0 | 0.0 | 0.00 | 0.00 | 0.00 | 67 | 1022.7 |
| 20260501223211 | 54 | 184 | 0.0 | 0.0 | 0.00 | 0.00 | 0.00 | 65 | 1022.8 |
| 20260501222211 | 54 | 261 | 1.0 | 4.0 | 0.00 | 0.00 | 0.00 | 63 | 1022.8 |
| 20260501221212 | 55 | 259 | 2.0 | 4.0 | 0.00 | 0.00 | 0.00 | 63 | 1022.8 |
| 20260501220212 | 56 | 229 | 0.0 | 0.0 | 0.00 | 0.00 | 0.00 | 61 | 1022.7 |
| 20260501215212 | 56 | 128 | 0.0 | 3.0 | 0.00 | 0.00 | 0.00 | 61 | 1022.5 |